Orbital Elements at Epoch 2459000.5 (2020-May-31.0) TDB
Reference: JPL 14 (heliocentric ecliptic J2000)
Element | Value | Uncertainty (1-sigma) | Units |
e | .1753701358592775 | 3.9923e-08 | |
a | 2.721143225988605 | 2.2824e-08 | au |
q | 2.24393596875443 | 1.0277e-07 | au |
i | 4.872850443118601 | 5.2351e-06 | deg |
node | 131.5787164942211 | 5.2115e-05 | deg |
peri | 122.538912910538 | 5.5001e-05 | deg |
M | 266.4470639106063 | 1.8892e-05 | deg |
tp | 2459426.569503439929 (2021-Jul-31.06950344) | 8.9517e-05 | TDB |
period | 1639.553258828869 4.49 | 2.0628e-05 5.648e-08 | d yr |
n | .2195720072290592 | 2.7625e-09 | deg/d |
Q | 3.198350483222779 | 2.6826e-08 | au |
|
| | Orbit Determination Parameters
Additional Information
|